Provincetown, MA

1:48 AM EDT on October 20, 2017 (GMT -0400)
Provincetown Municipal

Weather History for KPVC - October, 2012

Change the Weather History Date:

Friday, October 19, 2012

  Actual Average Record
Temperature  
Mean Temperature 60 °F -  
Max Temperature 66 °F 56 °F 75 °F (2016)
Min Temperature 53 °F 45 °F 33 °F (2001)
Degree Days  
Heating Degree Days 6    
Growing Degree Days 10 (Base 50)    
Moisture  
Dew Point 58 °F    
Average Humidity 86    
Maximum Humidity 100    
Minimum Humidity 68    
Precipitation  
Precipitation 0.47 in - - ()
Sea Level Pressure  
Sea Level Pressure 29.96 in    
Wind  
Wind Speed 11 mph (SE)    
Max Wind Speed 20 mph    
Max Gust Speed 29 mph    
Visibility 10 miles    
Events Thunderstorm    
Averages and records for this station are not official NWS values.
T = Trace of Precipitation, MM = Missing Value Source: NWS Daily Summary

Daily Weather History Graph

Daily Weather History Graph

Search for Another Location

Airport or City:

Trip Planner

Search our weather history database for the weather conditions in past years. The results will help you decide how hot, cold, wet, or windy it might be!

Date:

Astronomy

Oct. 19, 2012 Rise Set
Actual Time 6:58 AM EDT 5:52 PM EDT
Civil Twilight 6:30 AM EDT 6:20 PM EDT
Nautical Twilight 5:57 AM EDT 6:53 PM EDT
Astronomical Twilight 5:25 AM EDT 7:25 PM EDT
Moon 11:42 AM EDT (10/19) 9:23 PM EDT (10/19)
Length of Visible Light 11h 50m
Length of Day
10h 53m
Waxing Crescent, 23% of the Moon is Illuminated
Oct 19
Waxing Crescent
Oct 21
First Quarter
Oct 29
Full
Nov 6
Last Quarter
Nov 13
New

Hourly Weather History & Observations

Time (EDT) Temp. Dew Point Humidity Pressure Visibility Wind Dir Wind Speed Gust Speed Precip Events Conditions
12:35 AM 53.6 °F 51.8 °F 94% 30.10 in 10.0 mi ESE 6.9 mph - N/A   Clear
12:55 AM 55.4 °F 53.6 °F 94% 30.09 in 10.0 mi ESE 8.1 mph - N/A   Clear
1:15 AM 55.4 °F 53.6 °F 94% 30.08 in 10.0 mi SE 10.4 mph - N/A   Clear
1:35 AM 55.4 °F 53.6 °F 94% 30.08 in 10.0 mi SE 6.9 mph - N/A   Clear
1:55 AM 55.4 °F 53.6 °F 94% 30.08 in 10.0 mi ESE 6.9 mph - N/A   Clear
2:15 AM 55.4 °F 53.6 °F 94% 30.09 in 10.0 mi SE 8.1 mph - N/A   Clear
2:35 AM 55.4 °F 53.6 °F 94% 30.09 in 10.0 mi SE 6.9 mph - N/A   Partly Cloudy
3:15 AM 57.2 °F 55.4 °F 94% 30.09 in 10.0 mi SE 6.9 mph - N/A   Mostly Cloudy
3:35 AM 57.2 °F 55.4 °F 94% 30.08 in 10.0 mi ESE 9.2 mph - N/A   Scattered Clouds
3:55 AM 57.2 °F 55.4 °F 94% 30.07 in 10.0 mi ESE 6.9 mph - N/A   Partly Cloudy
4:15 AM 57.2 °F 55.4 °F 94% 30.06 in 10.0 mi ESE 9.2 mph - N/A   Clear
4:35 AM 57.2 °F 55.4 °F 94% 30.05 in 10.0 mi ESE 9.2 mph - N/A   Partly Cloudy
4:55 AM 59.0 °F 55.4 °F 88% 30.05 in 10.0 mi ESE 10.4 mph - N/A   Scattered Clouds
5:15 AM 59.0 °F 55.4 °F 88% 30.05 in 10.0 mi ESE 10.4 mph - N/A   Mostly Cloudy
5:35 AM 59.0 °F 55.4 °F 88% 30.05 in 10.0 mi ESE 9.2 mph - N/A   Mostly Cloudy
5:55 AM 60.8 °F 55.4 °F 82% 30.05 in 10.0 mi ESE 10.4 mph - N/A   Mostly Cloudy
6:15 AM 60.8 °F 53.6 °F 77% 30.04 in 10.0 mi ESE 10.4 mph 16.1 mph N/A   Scattered Clouds
6:35 AM 60.8 °F 53.6 °F 77% 30.04 in 10.0 mi ESE 10.4 mph - N/A   Partly Cloudy
6:55 AM 60.8 °F 55.4 °F 82% 30.02 in 10.0 mi ESE 12.7 mph 18.4 mph N/A   Partly Cloudy
7:15 AM 60.8 °F 55.4 °F 82% 30.03 in 10.0 mi ESE 9.2 mph 17.3 mph N/A   Partly Cloudy
7:35 AM 60.8 °F 55.4 °F 82% 30.04 in 10.0 mi SE 10.4 mph - N/A   Clear
7:55 AM 60.8 °F 55.4 °F 82% 30.04 in 10.0 mi SE 10.4 mph - N/A   Clear
8:15 AM 60.8 °F 55.4 °F 82% 30.04 in 10.0 mi SE 11.5 mph - N/A   Clear
8:35 AM 62.6 °F 55.4 °F 77% 30.05 in 10.0 mi SE 10.4 mph 17.3 mph N/A   Clear
8:55 AM 62.6 °F 55.4 °F 77% 30.04 in 10.0 mi SE 11.5 mph 16.1 mph N/A   Clear
9:15 AM 64.4 °F 55.4 °F 73% 30.03 in 10.0 mi SE 10.4 mph 18.4 mph N/A   Clear
9:35 AM 64.4 °F 55.4 °F 73% 30.05 in 10.0 mi SE 11.5 mph - N/A   Partly Cloudy
9:55 AM 64.4 °F 53.6 °F 68% 30.04 in 10.0 mi SE 12.7 mph 19.6 mph N/A   Mostly Cloudy
10:15 AM 64.4 °F 53.6 °F 68% 30.04 in 10.0 mi SE 11.5 mph 19.6 mph N/A   Overcast
10:35 AM 64.4 °F 55.4 °F 73% 30.03 in 10.0 mi SE 13.8 mph 25.3 mph N/A   Overcast
10:55 AM 66.2 °F 55.4 °F 68% 30.03 in 10.0 mi SE 13.8 mph 19.6 mph N/A   Mostly Cloudy
11:35 AM 66.2 °F 57.2 °F 73% 30.01 in 10.0 mi SE 16.1 mph 21.9 mph N/A   Mostly Cloudy
11:55 AM 66.2 °F 57.2 °F 73% 30.00 in 10.0 mi ESE 15.0 mph 23.0 mph N/A   Mostly Cloudy
12:16 PM 64.4 °F 57.2 °F 77% 29.98 in 10.0 mi SE 16.1 mph 25.3 mph N/A   Overcast
12:35 PM 64.4 °F 57.2 °F 77% 29.98 in 10.0 mi SE 17.3 mph 24.2 mph N/A   Mostly Cloudy
12:55 PM 64.4 °F 57.2 °F 77% 29.95 in 10.0 mi ESE 19.6 mph 28.8 mph N/A   Mostly Cloudy
1:15 PM 64.4 °F 57.2 °F 77% 29.95 in 10.0 mi SE 16.1 mph 26.5 mph N/A   Overcast
1:55 PM 64.4 °F 59.0 °F 83% 29.93 in 10.0 mi ESE 17.3 mph 26.5 mph N/A   Overcast
2:15 PM 64.4 °F 59.0 °F 83% 29.92 in 10.0 mi SE 17.3 mph 23.0 mph N/A   Overcast
2:35 PM 66.2 °F 59.0 °F 78% 29.91 in 10.0 mi SE 15.0 mph 24.2 mph N/A   Overcast
3:15 PM 66.2 °F 60.8 °F 83% 29.91 in 10.0 mi SE 13.8 mph 24.2 mph N/A   Mostly Cloudy
3:35 PM 64.4 °F 60.8 °F 88% 29.90 in 10.0 mi SE 13.8 mph 24.2 mph N/A   Overcast
3:55 PM 64.4 °F 60.8 °F 88% 29.90 in 10.0 mi SE 12.7 mph 19.6 mph N/A   Overcast
4:15 PM 64.4 °F 60.8 °F 88% 29.90 in 10.0 mi SE 12.7 mph 19.6 mph N/A   Mostly Cloudy
4:35 PM 64.4 °F 60.8 °F 88% 29.89 in 10.0 mi ESE 16.1 mph 20.7 mph N/A   Overcast
5:15 PM 64.4 °F 60.8 °F 88% 29.87 in 10.0 mi ESE 16.1 mph 21.9 mph N/A   Overcast
5:35 PM 64.4 °F 60.8 °F 88% 29.86 in 10.0 mi ESE 15.0 mph 24.2 mph N/A   Overcast
6:15 PM 64.4 °F 60.8 °F 88% 29.84 in 10.0 mi ESE 13.8 mph 21.9 mph N/A   Overcast
6:35 PM 64.4 °F 62.6 °F 94% 29.83 in 7.0 mi SE 15.0 mph 20.7 mph N/A   Overcast
6:55 PM 64.4 °F 62.6 °F 94% 29.81 in 8.0 mi SE 17.3 mph 24.2 mph N/A   Overcast
7:15 PM 64.4 °F 62.6 °F 94% 29.81 in 10.0 mi SE 16.1 mph 23.0 mph N/A   Overcast
7:35 PM 64.4 °F 62.6 °F 94% 29.81 in 9.0 mi SSE 15.0 mph 23.0 mph N/A   Overcast
7:55 PM 64.4 °F 62.6 °F 94% 29.80 in 10.0 mi SSE 16.1 mph 25.3 mph 0.03 in   Overcast
8:15 PM 64.4 °F 62.6 °F 94% 29.79 in 10.0 mi SSE 17.3 mph 25.3 mph N/A   Overcast
8:35 PM 64.4 °F 62.6 °F 94% 29.80 in 10.0 mi SSE 15.0 mph 25.3 mph N/A   Overcast
8:55 PM 64.4 °F 62.6 °F 94% 29.80 in 10.0 mi SSE 13.8 mph 20.7 mph N/A   Overcast
9:15 PM 66.2 °F 62.6 °F 88% 29.79 in 9.0 mi South 16.1 mph 23.0 mph N/A   Overcast
9:35 PM 66.2 °F 64.4 °F 94% 29.80 in 10.0 mi South 15.0 mph 24.2 mph N/A   Overcast
9:55 PM 66.2 °F 64.4 °F 94% 29.80 in 9.0 mi South 15.0 mph 21.9 mph N/A   Overcast
10:15 PM 64.4 °F 64.4 °F 100% 29.81 in 8.0 mi South 13.8 mph 20.7 mph N/A   Overcast
10:35 PM 64.4 °F 62.6 °F 94% 29.81 in 7.0 mi South 12.7 mph 19.6 mph 0.01 in   Overcast
10:55 PM 66.2 °F 64.4 °F 94% 29.80 in 8.0 mi South 12.7 mph 21.9 mph 0.01 in Thunderstorm Overcast
11:35 PM 66.2 °F 64.4 °F 94% 29.80 in 6.0 mi SSW 12.7 mph 19.6 mph 0.43 in Thunderstorm Overcast
11:55 PM 66.2 °F 64.4 °F 94% 29.80 in 7.0 mi South 9.2 mph - 0.43 in Thunderstorm Overcast